User: anonymous   Login
Location: Corralito
(10.2667°N, 66.9500°W)
Time: 00:35:30
(UTC+00:00)
Language:

Cosmos 1633 - Orbit

View from above orbital plane
View from above orbital plane
View from above satellite
View from above satellite

Ground track
Ground track

The orbit data is extracted from the following two-line orbital elements,

1 15592U 85020A   24096.39523517  .28846155 -12401-5  25805-3 0  9999
2 15592  82.4874 317.3573 0009206 260.7764 276.6189 16.51575763145820
Epoch (UTC): 05 April 2024 09:29:08
Eccentricity: 0.0009206
inclination: 82.4874°
perigee height: 129 km
apogee height: 141 km
right ascension of ascending node: 317.3573°
argument of perigee: 260.7764°
revolutions per day: 16.51575763
mean anomaly at epoch: 276.6189°
orbit number at epoch: 14582

The dashed part of the orbit path shows where the satellite is in the earth's shadow,  

DLR